EW5461 Weather Reports


Display with metric or nautical units.
time (UTC)temp
F
wind
direction
speed
MPH
gust
MPH
rain 1hr
in
rain 24hr
in
rain mn
in
humidity
%
barometer
mb
20260902094516 81 143 0.0 0.0 0.00 0.00 0.00 70 1013.0
20260902093014 82 143 0.0 2.0 0.00 0.00 0.00 68 1013.0
20260902091514 82 180 0.0 2.0 0.00 0.00 0.00 68 1013.1
20260902090020 83 180 0.0 4.0 0.00 0.00 0.00 66 1013.2
20260902084509 83 163 1.0 6.0 0.00 0.00 0.00 66 1013.1
20260902083007 83 162 0.0 3.0 0.00 0.00 0.00 65 1013.1
20260902081505 84 169 1.0 4.0 0.00 0.00 0.00 64 1013.2
20260902080005 84 167 1.0 5.0 0.00 0.00 0.00 63 1013.1
20260902074502 84 184 1.0 9.0 0.00 0.00 0.00 63 1013.2
20260902073100 84 216 3.0 8.0 0.00 0.00 0.00 63 1013.3
20260902071559 84 161 1.0 8.0 0.00 0.00 0.00 63 1013.3
20260902070057 85 153 3.0 11.0 0.00 0.00 0.00 63 1013.3
20260902064603 85 175 0.0 4.0 0.00 0.00 0.00 63 1013.3
20260902063106 85 148 2.0 10.0 0.00 0.00 0.00 63 1013.1
20260902061609 86 178 4.0 11.0 0.00 0.00 0.00 62 1013.0
20260902060046 86 180 3.0 12.0 0.00 0.00 0.00 61 1012.9
20260902054542 86 170 1.0 7.0 0.00 0.00 0.00 61 1012.7
20260902053040 87 107 1.0 7.0 0.00 0.00 0.00 59 1012.6
20260902051553 88 122 1.0 10.0 0.00 0.00 0.00 57 1012.5
20260902050033 88 154 1.0 7.0 0.00 0.00 0.00 56 1012.4
20260902044558 88 117 0.0 3.0 0.00 0.00 0.00 56 1012.3
20260902043034 89 137 0.0 2.0 0.00 0.00 0.00 55 1012.3
20260902041534 89 120 1.0 4.0 0.00 0.00 0.00 54 1012.2
20260902040030 89 109 0.0 2.0 0.00 0.00 0.00 54 1012.1
20260902034529 90 134 0.0 2.0 0.00 0.00 0.00 53 1012.1
20260902033031 90 76 0.0 4.0 0.00 0.00 0.00 52 1012.2
20260902031547 91 24 0.0 3.0 0.00 0.00 0.00 51 1011.9
20260902030028 91 149 0.0 2.0 0.00 0.00 0.00 51 1011.7
20260902024527 91 149 0.0 3.0 0.00 0.00 0.00 50 1011.5
20260902023030 92 116 1.0 4.0 0.00 0.00 0.00 50 1011.3
20260902021526 92 111 0.0 4.0 0.00 0.00 0.00 50 1011.1
20260902020026 92 177 0.0 3.0 0.00 0.00 0.00 49 1011.0
20260902014531 93 122 0.0 4.0 0.00 0.00 0.00 48 1010.8
20260902013030 93 63 0.0 3.0 0.00 0.00 0.00 47 1010.7
20260902011529 94 153 0.0 4.0 0.00 0.00 0.00 46 1010.6
20260902010024 95 123 0.0 6.0 0.00 0.00 0.00 45 1010.4
20260902004523 96 191 1.0 5.0 0.00 0.00 0.00 44 1010.4
20260902003021 97 229 1.0 8.0 0.00 0.00 0.00 43 1010.6
20260902001521 99 145 0.0 5.0 0.00 0.00 0.00 40 1010.6
20260902000020 100 134 0.0 5.0 0.00 0.00 0.00 39 1010.6
20260901234518 100 81 0.0 5.0 0.00 0.00 0.00 39 1010.9
20260901233025 100 17 0.0 7.0 0.00 0.00 0.00 39 1010.9
20260901231525 100 97 2.0 7.0 0.00 0.00 0.00 38 1010.9
20260901230020 100 90 2.0 9.0 0.00 0.00 0.00 38 1010.8
20260901224516 102 350 0.0 8.0 0.00 0.00 0.00 37 1010.8
20260901223016 102 227 2.0 7.0 0.00 0.00 0.00 36 1010.9
20260901221513 101 118 0.0 7.0 0.00 0.00 0.00 37 1011.0
20260901220012 100 46 2.0 4.0 0.00 0.00 0.00 38 1011.0
20260901214511 101 90 2.0 8.0 0.00 0.00 0.00 38 1011.1
20260901213020 102 46 1.0 3.0 0.00 0.00 0.00 38 1011.2
20260901211511 101 162 0.0 6.0 0.00 0.00 0.00 39 1011.4
20260901210012 99 355 2.0 5.0 0.00 0.00 0.00 42 1011.6
20260901204507 98 55 0.0 7.0 0.00 0.00 0.00 42 1011.7
20260901203005 101 360 2.0 6.0 0.00 0.00 0.00 40 1011.8
20260901201501 101 134 0.0 9.0 0.00 0.00 0.00 39 1012.1
20260901200057 98 146 2.0 8.0 0.00 0.00 0.00 42 1012.1
20260901194602 99 98 4.0 9.0 0.00 0.00 0.00 41 1012.2
20260901193052 99 72 3.0 7.0 0.00 0.00 0.00 40 1012.4
20260901191551 99 340 1.0 11.0 0.00 0.00 0.00 42 1012.7
20260901190049 98 126 1.0 8.0 0.00 0.00 0.00 43 1012.8
20260901184546 98 215 2.0 11.0 0.00 0.00 0.00 43 1013.2
20260901183105 98 159 1.0 7.0 0.00 0.00 0.00 44 1013.4
20260901181541 95 139 1.0 7.0 0.00 0.00 0.00 47 1013.6
20260901180039 95 148 4.0 8.0 0.00 0.00 0.00 47 1013.8
20260901174538 97 211 2.0 10.0 0.00 0.00 0.00 47 1014.0
20260901173039 96 157 2.0 7.0 0.00 0.00 0.00 46 1014.3
20260901171546 95 158 3.0 7.0 0.00 0.00 0.00 48 1014.5
20260901170041 94 90 1.0 9.0 0.00 0.00 0.00 49 1014.7
20260901164524 94 21 0.0 5.0 0.00 0.00 0.00 50 1014.9
20260901163027 91 166 4.0 9.0 0.00 0.00 0.00 53 1015.0
20260901161518 91 140 5.0 8.0 0.00 0.00 0.00 53 1015.1
20260901160015 90 237 3.0 8.0 0.00 0.00 0.00 55 1015.0
20260901154514 89 229 3.0 9.0 0.00 0.00 0.00 57 1015.0
20260901153012 89 180 2.0 8.0 0.00 0.00 0.00 58 1015.0
20260901151508 88 172 3.0 8.0 0.00 0.00 0.00 60 1015.0
20260901150008 87 171 4.0 8.0 0.00 0.00 0.00 61 1015.1
20260901144506 86 193 5.0 10.0 0.00 0.00 0.00 63 1015.1
20260901143006 86 178 2.0 5.0 0.00 0.00 0.00 63 1015.2
20260901141505 85 209 2.0 7.0 0.00 0.00 0.00 64 1015.2
20260901140006 84 146 1.0 6.0 0.00 0.00 0.00 65 1015.3
20260901134504 83 178 0.0 6.0 0.00 0.00 0.00 67 1015.2
20260901133105 81 134 0.0 3.0 0.00 0.00 0.00 69 1015.0
20260901131559 80 134 0.0 2.0 0.00 0.00 0.00 70 1014.9
20260901130106 80 163 0.0 1.0 0.00 0.00 0.00 71 1014.8
20260901124556 79 163 0.0 2.0 0.00 0.00 0.00 71 1014.5
20260901123054 79 163 0.0 2.0 0.00 0.00 0.00 70 1014.4
20260901121558 79 163 0.0 0.0 0.00 0.00 0.00 70 1014.3
20260901114548 80 163 1.0 6.0 0.00 0.00 0.00 69 1014.2
20260901113047 80 163 2.0 4.0 0.00 0.00 0.00 69 1014.1
20260901111551 81 163 0.0 5.0 0.00 0.00 0.00 68 1014.0
20260901110043 81 163 0.0 5.0 0.00 0.00 0.00 68 1013.9
20260901104541 81 153 1.0 4.0 0.00 0.00 0.00 68 1013.8
20260901103042 82 196 2.0 4.0 0.00 0.00 0.00 67 1013.9
20260901101540 82 164 1.0 9.0 0.00 0.00 0.00 67 1013.7
20260901100038 82 164 2.0 7.0 0.00 0.00 0.00 66 1013.7